Weather History for KMCD - October, 2012

Change the Weather History Date:

Sunday, October 28, 2012

  Actual Average Record
Temperature  
Mean Temperature 40 °F -  
Max Temperature 45 °F 46 °F 63 °F (1974)
Min Temperature 34 °F 36 °F 21 °F (1997)
Degree Days  
Heating Degree Days 26    
Moisture  
Dew Point 26 °F    
Average Humidity 62    
Maximum Humidity 78    
Minimum Humidity 43    
Precipitation  
Precipitation 0.00 in - - ()
Sea Level Pressure  
Sea Level Pressure 30.31 in    
Wind  
Wind Speed 8 mph (North)    
Max Wind Speed 14 mph    
Max Gust Speed 22 mph    
Visibility 10 miles    
Events      
Averages and records for this station are not official NWS values.
T = Trace of Precipitation, MM = Missing Value Source: NWS Daily Summary

Daily Weather History Graph

Daily Weather History Graph

Search for Another Location

Airport or City:

Trip Planner

Search our weather history database for the weather conditions in past years. The results will help you decide how hot, cold, wet, or windy it might be!

Date:

Astronomy

Oct. 28, 2012 Rise Set
Actual Time 8:13 AM EDT 6:30 PM EDT
Civil Twilight 7:42 AM EDT 7:00 PM EDT
Nautical Twilight 7:07 AM EDT 7:35 PM EDT
Astronomical Twilight 6:33 AM EDT 8:10 PM EDT
Moon 5:47 PM EDT (10/28) 7:04 AM EDT (10/28)
Length of Visible Light 11h 17m
Length of Day
10h 16m
Waxing Gibbous, 99% of the Moon is Illuminated
Oct 28
Waxing Gibbous
Oct 29
Full
Nov 6
Last Quarter
Nov 13
New
Nov 20
First Quarter

Hourly Weather History & Observations

Time (EDT) Temp. Windchill Dew Point Humidity Pressure Visibility Wind Dir Wind Speed Gust Speed Precip Events Conditions
12:13 AM 36.1 °F 29.3 °F 29.7 °F 77% 30.29 in 10.0 mi North 9.2 mph 17.3 mph N/A   Overcast
12:54 AM 36.1 °F 29.9 °F 27.5 °F 71% 30.30 in 10.0 mi North 8.1 mph 17.3 mph N/A   Overcast
1:13 AM 36.5 °F 29.2 °F 27.3 °F 69% 30.30 in 10.0 mi North 10.4 mph - N/A   Overcast
1:34 AM 36.1 °F 28.7 °F 27.9 °F 72% 30.30 in 10.0 mi North 10.4 mph - N/A   Scattered Clouds
1:54 AM 35.8 °F 29.4 °F 28.9 °F 76% 30.31 in 10.0 mi North 8.1 mph 16.1 mph N/A   Scattered Clouds
2:13 AM 36.0 °F 30.3 °F 29.3 °F 77% 30.31 in 10.0 mi North 6.9 mph - N/A   Mostly Cloudy
2:34 AM 35.8 °F 28.8 °F 28.4 °F 75% 30.30 in 10.0 mi North 9.2 mph - N/A   Overcast
2:54 AM 36.0 °F 31.1 °F 28.0 °F 73% 30.31 in 10.0 mi North 5.8 mph - N/A   Overcast
3:13 AM 36.0 °F 30.3 °F 27.5 °F 71% 30.31 in 10.0 mi North 6.9 mph 17.3 mph N/A   Mostly Cloudy
3:34 AM 35.4 °F 29.0 °F 27.5 °F 73% 30.31 in 10.0 mi North 8.1 mph - N/A   Scattered Clouds
3:54 AM 36.0 °F 30.3 °F 27.0 °F 70% 30.31 in 10.0 mi North 6.9 mph - N/A   Clear
4:13 AM 36.3 °F 29.5 °F 25.9 °F 66% 30.31 in 10.0 mi North 9.2 mph - N/A   Clear
4:34 AM 36.0 °F 29.0 °F 26.2 °F 68% 30.31 in 10.0 mi North 9.2 mph - N/A   Clear
4:54 AM 35.6 °F 30.7 °F 25.9 °F 68% 30.31 in 10.0 mi North 5.8 mph - N/A   Clear
5:13 AM 35.4 °F 29.7 °F 26.6 °F 70% 30.32 in 10.0 mi North 6.9 mph - N/A   Clear
5:34 AM 35.4 °F 29.0 °F 25.5 °F 67% 30.32 in 10.0 mi North 8.1 mph - N/A   Clear
5:54 AM 35.2 °F 29.5 °F 25.2 °F 67% 30.33 in 10.0 mi North 6.9 mph - N/A   Clear
6:13 AM 35.6 °F 28.6 °F 24.4 °F 64% 30.33 in 10.0 mi North 9.2 mph - N/A   Clear
6:34 AM 35.2 °F 28.8 °F 25.0 °F 66% 30.34 in 10.0 mi North 8.1 mph - N/A   Clear
6:54 AM 35.6 °F 31.7 °F 26.1 °F 68% 30.33 in 10.0 mi North 4.6 mph - N/A   Clear
7:13 AM 35.1 °F 30.1 °F 26.2 °F 70% 30.33 in 10.0 mi North 5.8 mph - N/A   Clear
7:34 AM 35.6 °F 29.9 °F 24.4 °F 64% 30.33 in 10.0 mi North 6.9 mph - N/A   Clear
7:54 AM 35.6 °F 30.7 °F 24.8 °F 65% 30.33 in 10.0 mi North 5.8 mph - N/A   Clear
8:13 AM 35.4 °F 30.5 °F 26.1 °F 69% 30.33 in 10.0 mi North 5.8 mph - N/A   Clear
8:34 AM 34.3 °F 30.2 °F 26.8 °F 74% 30.33 in 10.0 mi North 4.6 mph - N/A   Clear
8:54 AM 34.3 °F 29.2 °F 27.3 °F 76% 30.33 in 10.0 mi North 5.8 mph - N/A   Clear
9:13 AM 36.7 °F 32.9 °F 27.3 °F 69% 30.33 in 10.0 mi North 4.6 mph - N/A   Clear
9:34 AM 38.8 °F 35.4 °F 27.0 °F 62% 30.34 in 10.0 mi North 4.6 mph - N/A   Clear
9:53 AM 38.7 °F 31.8 °F 24.8 °F 58% 30.34 in 10.0 mi NNE 10.4 mph - N/A   Clear
10:13 AM 39.2 °F 33.6 °F 23.0 °F 52% 30.34 in 10.0 mi NNE 8.1 mph - N/A   Clear
10:34 AM 41.0 °F 35.8 °F 24.6 °F 52% 30.34 in 10.0 mi NNE 8.1 mph - N/A   Clear
10:53 AM 41.0 °F 35.8 °F 24.4 °F 52% 30.34 in 10.0 mi NE 8.1 mph - N/A   Clear
11:14 AM 40.1 °F 34.7 °F 23.0 °F 51% 30.34 in 10.0 mi NE 8.1 mph - N/A   Clear
11:34 AM 41.2 °F 36.0 °F 23.7 °F 50% 30.34 in 10.0 mi NE 8.1 mph - N/A   Clear
11:53 AM 42.1 °F 36.6 °F 23.7 °F 48% 30.33 in 10.0 mi NNE 9.2 mph - N/A   Clear
12:14 PM 42.1 °F 36.1 °F 23.0 °F 47% 30.33 in 10.0 mi NE 10.4 mph - N/A   Clear
12:33 PM 42.8 °F 37.5 °F 22.1 °F 44% 30.32 in 10.0 mi NNE 9.2 mph - N/A   Clear
1:14 PM 43.3 °F 38.6 °F 23.7 °F 46% 30.31 in 10.0 mi NNE 8.1 mph - N/A   Clear
1:33 PM 43.5 °F 38.3 °F 24.3 °F 47% 30.31 in 10.0 mi NNE 9.2 mph - N/A   Clear
1:53 PM 44.2 °F 40.3 °F 25.0 °F 47% 30.31 in 10.0 mi North 6.9 mph - N/A   Scattered Clouds
2:13 PM 44.2 °F 39.7 °F 24.3 °F 45% 30.30 in 10.0 mi North 8.1 mph - N/A   Scattered Clouds
2:33 PM 44.8 °F 39.9 °F 24.4 °F 45% 30.30 in 10.0 mi NNW 9.2 mph - N/A   Clear
2:54 PM 45.0 °F 41.2 °F 24.6 °F 45% 30.30 in 10.0 mi NNW 6.9 mph - N/A   Clear
3:14 PM 45.7 °F 41.5 °F 24.3 °F 43% 30.30 in 10.0 mi NNE 8.1 mph - N/A   Clear
3:33 PM 44.6 °F 38.4 °F 23.2 °F 43% 30.30 in 10.0 mi NNE 12.7 mph 16.1 mph N/A   Clear
3:54 PM 45.3 °F 40.6 °F 24.3 °F 44% 30.28 in 10.0 mi North 9.2 mph 17.3 mph N/A   Clear
4:13 PM 44.8 °F 41.0 °F 24.3 °F 45% 30.28 in 10.0 mi North 6.9 mph 18.4 mph N/A   Clear
4:33 PM 44.8 °F 39.4 °F 23.9 °F 44% 30.28 in 10.0 mi North 10.4 mph - N/A   Clear
4:54 PM 42.8 °F 38.6 °F 24.1 °F 48% 30.28 in 10.0 mi North 6.9 mph 17.3 mph N/A   Clear
5:13 PM 43.3 °F 36.5 °F 25.7 °F 50% 30.28 in 10.0 mi North 13.8 mph 19.6 mph N/A   Clear
5:33 PM 42.4 °F 36.1 °F 25.0 °F 50% 30.28 in 10.0 mi North 11.5 mph 19.6 mph N/A   Clear
5:54 PM 41.9 °F 36.3 °F 25.7 °F 53% 30.28 in 10.0 mi North 9.2 mph 16.1 mph N/A   Clear
6:13 PM 41.0 °F 34.3 °F 25.5 °F 54% 30.28 in 10.0 mi North 11.5 mph 21.9 mph N/A   Clear
6:33 PM 40.6 °F 34.8 °F 25.9 °F 56% 30.28 in 10.0 mi NNW 9.2 mph 20.7 mph N/A   Clear
6:54 PM 40.3 °F 33.9 °F 26.8 °F 59% 30.29 in 10.0 mi North 10.4 mph 21.9 mph N/A   Clear
7:13 PM 40.3 °F 33.4 °F 27.5 °F 60% 30.29 in 10.0 mi NNW 11.5 mph 20.7 mph N/A   Clear
7:33 PM 39.9 °F 32.5 °F 27.5 °F 61% 30.29 in 10.0 mi NNW 12.7 mph 19.6 mph N/A   Clear
7:54 PM 39.4 °F 32.7 °F 28.0 °F 64% 30.29 in 10.0 mi North 10.4 mph 16.1 mph N/A   Clear
8:13 PM 38.8 °F 31.6 °F 27.5 °F 64% 30.30 in 10.0 mi NNW 11.5 mph 20.7 mph N/A   Clear
8:33 PM 38.3 °F 32.5 °F 27.5 °F 65% 30.30 in 10.0 mi North 8.1 mph 17.3 mph N/A   Clear
8:54 PM 38.3 °F 30.9 °F 28.0 °F 67% 30.29 in 10.0 mi NNW 11.5 mph - N/A   Clear
9:13 PM 37.4 °F 30.3 °F 27.9 °F 68% 30.29 in 10.0 mi NNW 10.4 mph - N/A   Clear
9:33 PM 37.0 °F 29.8 °F 27.9 °F 69% 30.29 in 10.0 mi NNW 10.4 mph 16.1 mph N/A   Clear
9:54 PM 36.9 °F 31.4 °F 28.4 °F 71% 30.30 in 10.0 mi NNW 6.9 mph - N/A   Clear
10:13 PM 36.5 °F 31.0 °F 28.4 °F 72% 30.29 in 10.0 mi North 6.9 mph - N/A   Clear
10:34 PM 36.5 °F 30.3 °F 28.9 °F 74% 30.29 in 10.0 mi North 8.1 mph - N/A   Clear
10:54 PM 36.1 °F 30.6 °F 29.3 °F 76% 30.29 in 10.0 mi North 6.9 mph - N/A   Clear
11:13 PM 35.8 °F 30.9 °F 29.7 °F 78% 30.29 in 10.0 mi North 5.8 mph - N/A   Clear
11:34 PM 36.5 °F 29.7 °F 29.5 °F 76% 30.29 in 10.0 mi North 9.2 mph - N/A   Clear
11:54 PM 36.9 °F 30.7 °F 28.2 °F 71% 30.28 in 10.0 mi North 8.1 mph - N/A   Clear